Regional Weather Roundup
Issued by NWS Wakefield, VA

Home | Current Version | Previous Version | Text Only | Print | Product List | Glossary On
Versions: 1 2 3 4 5 6 7 8 9 10 11 12 13 14 15 16 17 18 19 20 21 22 23 24 25 26
000
ASUS41 KAKQ 241115
RWRAKQ

REGIONAL WEATHER ROUNDUP
NATIONAL WEATHER SERVICE WAKEFIELD VA
700 AM EDT TUE APR 24 2018

Note: "fair" indicates few or no clouds below 12,000 feet with no
significant weather and/or obstructions to visibility. * = Denotes
station may not report precipitation (e.g., rain,snow,etc.),
thunder or fog.

VAZ042-051-052>054-056-241200-
NORTHERN VIRGINIA

CITY           SKY/WX    TMP DP  RH WIND       PRES   REMARKS
WASH NATIONAL  CLOUDY    55  41  59 E8        30.30S
DULLES         CLOUDY    55  41  59 E9        30.28S
FORT BELVOIR   CLOUDY    54  40  59 E3        30.28S
QUANTICO       CLOUDY    55  44  66 NE7       30.28S
FREDERICKSBRG* FAIR      55  47  72 E7        30.25S
STAFFORD*      CLOUDY    55  45  67 E8        30.29F
WARRENTON      CLOUDY    54  40  59 NE5       30.25F
CULPEPER*      CLOUDY    52  45  75 NE3       30.27S
MANASSAS*      CLOUDY    54  41  61 E6        30.28S
LEESBURG*      CLOUDY    54  43  66 E3        30.29S
WINCHESTER     RAIN      46  43  87 CALM      30.29R
FRONT ROYAL*   CLOUDY    48  45  87 S3        30.26R
LURAY*         LGT RAIN  48  46  93 N6        30.24S
$$

VAZ048-049-060>072-079>083-241200-
CENTRAL AND SOUTH CENTRAL VIRGINIA

CITY           SKY/WX    TMP DP  RH WIND       PRES   REMARKS
RICHMOND       LGT RAIN  53  51  93 NE9       30.21S
CHESTERFIELD*  LGT RAIN  53  50  89 NE6       30.21
PETERSBURG*    LGT RAIN  54  50  86 NE6       30.20R
HANOVER        LGT RAIN  54  48  80 NE7       30.23F
TAPPAHANNOCK*  FAIR      56  48  73 E8        30.25S
QUINTON*       CLOUDY    54  50  86 E7        30.21S
CHARLOTTSVILLE LGT RAIN  50  45  83 NE10      30.22F
GORDONSVILLE*  CLOUDY    50  46  87 NE7       30.23S
ORANGE*        MOCLDY    48  45  87 CALM      30.24S
LOUISA*        LGT RAIN  53  44  71 E6        30.27S
BUMPASS*       CLOUDY    53  44  71 E7        30.23S
FARMVILLE*     RAIN     N/A N/A N/A NE9       30.16F
CREWE*         CLOUDY    51  51 100 NE6       30.16F
FORT PICKETT*  CLOUDY    52  52 100 NE10G16   30.16S
CHASE CITY*    CLOUDY    52  52 100 E8G18     30.12S
CLARKSVILLE*   CLOUDY    52  52 100 E7        30.10S
SOUTH HILL*    CLOUDY    51  51 100 CALM      30.19R
LAWRENCEVILLE* CLOUDY    53  52  96 E6        30.14S
EMPORIA*       RAIN      54  52  94 E10G16    30.17S
$$

VAZ088>098-241200-
SOUTHEAST VIRGINIA

CITY           SKY/WX    TMP DP  RH WIND       PRES   REMARKS
NORFOLK        CLOUDY    61  51  70 SE10G21   30.20S
VIRGINIA BEACH LGT RAIN  57  51  80 E17G24    30.20S
NORFOLK NAVAL  LGT RAIN  60  50  69 SE13G20   30.21S
WEST POINT*    CLOUDY    57  49  76 E8        30.24S
SALUDA*        PTSUNNY   55  52  88 E8        30.24S
NEWPORT NEWS   LGT RAIN  57  51  80 E12       30.21F
LANGLEY AFB    LGT RAIN  57  52  82 SE15      30.21S
FORT EUSTIS    FAIR      57  51  81 E8        30.18F
WILLIAMSBURG*  MOCLDY    57  52  82 E9        30.22S
HR EXEC AP*    CLOUDY    57  53  86 E12       30.20S
FRANKLIN*      DRIZZLE   56  53  92 E10       30.18S
US460-WAKEFLD  LGT RAIN  55  54  96 E5        30.19S FOG
$$

VAZ020-022-025-037-045-241200-
WEST CENTRAL AND SOUTHWEST VIRGINIA

CITY           SKY/WX    TMP DP  RH WIND       PRES   REMARKS
STAUNTON*      LGT RAIN  50  45  81 CALM      30.23S
WAYNESBORO*    CLOUDY    47  46  95 CALM      30.21S
HOT SPRINGS VA RAIN      41  41 100 E12G22    30.12F VSB<1/4
LYNCHBURG      RAIN      48  47  96 NE16      30.14F FOG
DANVILLE       LGT RAIN  51  51 100 NE14      30.09F
SOUTH BOSTON*  CLOUDY    52  51  95 E6        30.12S
MARTINSVILLE   DRIZZLE   50  49  95 NE6       30.10F
ROANOKE        LGT RAIN  52  49  89 E12G25    30.13S
BLACKSBURG     RAIN      48  47  97 E18G26    30.11S
DUBLIN*        CLOUDY    48  47  97 E13G18    30.07S
MARION*        LGT RAIN  48  48  99 NE13      30.04S
HILLSVILLE*    RAIN      46  46  97 E15G22    30.02S
RICHLANDS*     CLOUDY    50  17  26 SE10G31   29.98S
WISE*          LGT RAIN  52  46  82 E3        29.95S
ABINGDON*      MOCLDY    53  48  84 E13       29.95S
$$

MDZ021>025-VAZ099-100-241200-
SOUTHERN MARYLAND AND THE DELMARVA PENINSULA

CITY           SKY/WX    TMP DP  RH WIND       PRES   REMARKS
PATUXENT RIVER CLOUDY    56  48  74 E14       30.27S
BAY BRIDGE APT MOCLDY    52  39  62 E9        30.31S
LEONARDTOWN    FAIR      54  45  71 E7        30.29S
DOVER          FAIR      52  45  77 E8        30.34S
GEORGETOWN     FAIR      53  45  74 E10       30.34R
EASTON         MOCLDY    52  39  62 E7        30.35R
CAMBRIDGE      CLEAR     52  43  71 E9        30.30S
SALISBURY      FAIR      52  45  77 E7        30.31S
TANGIER        PTSUNNY   55  52  88 E12G18    30.26S
OCEAN CITY     FAIR      51  48  89 E13G21    30.32S
WALLOPS ISLAND FAIR      56  48  74 E17       30.29S
ACCOMACK*      CLOUDY    56  47  72 E6G18     30.27R
$$

NCZ012>017-030>032-241200-
NORTH CENTRAL AND EASTERN NORTH CAROLINA

CITY           SKY/WX    TMP DP  RH WIND       PRES   REMARKS
ROANOKE RAPIDS LGT RAIN  54  54 100 NE6       30.13S
RALEIGH        LGT RAIN  57  57 100 E10       30.04F FOG
ELIZABETH CITY LGT RAIN  60  57  89 E16       30.18S
AHOSKIE*       HVY RAIN  56  56 100 E6        30.14F
EDENTON*       RAIN      61  58  92 E12G17    30.16S
CURRITUCK*     NOT AVBL
KILL DEVIL HLS LGT RAIN  56  53  90 E12       30.17S
MANTEO         CLOUDY    58  54  85 SE13G18   30.18S
CAPE HATTERAS  RAIN      64  60  87 SE28G38   30.14F FOG
TARBORO*       NOT AVBL
GOLDSBORO      LGT RAIN  61  59  95 E17G28    30.02F FOG
WASHINGTON     LGT RAIN  61  60  94 E12G18    30.11S
GREENVILLE     LGT RAIN  61  61 100 SE10G17   30.11S
NEW BERN       RAIN      61  60  97 E13G21    30.10S FOG
WILMINGTON     HVY RAIN  63  62  97 E13       29.98F FOG
$$

VAZ048-241200-
ELSEWHERE

CITY           SKY/WX    TMP DP  RH WIND       PRES   REMARKS
HARRISBURG PA  MOCLDY    49  33  54 E8        30.33S
BALTIMORE      CLOUDY    53  40  61 E8        30.31S
ANNAPOLIS      CLOUDY    55  43  63 E8        30.31S
ANDREWS AFB    FAIR      52  41  66 E12       30.28F
PHILADELPHIA   MOCLDY    44  37  76 E5        30.38S
HENDERSON NC   RAIN      51  49  96 E9        30.09S
GREENSBORO     RAIN      53  53 100 NE15      30.01F FOG
ROCKY MOUNT    LGT RAIN  58  57  97 VRB3      30.09F FOG
$$

VAZ100-241200-
MARINE

STATION/POSITION TIME  TEMP    WIND        PRES    WAVE   SWELL
                       AIR SEA DIR/SP/G            HT/PER HT/PER
                 (UTC) (F)     (DEG/KT/KT) (MB)    (FT/S) (FT/S)
BRANDYWINE LGT   1042   53     120/ 20/ 23 1027.6F
CAPE MAY NJ      1048   52 51  110/ 12/ 17 1027.2S
LEWES DE         1048      51  120/ 11/ 16 1027.2F
15NM E FENWICK I 1050   49 47   80/ 14/ 16 1027.6R   2/ 3   2/ 8
OCEAN-CITY-INLET 1048   52 50  120/ 11/ 16 1027.2R
WACHAPREAGUE VA  1048   54 55  100/ 12/ 14 1025.1R
THOMAS POINT MD  1100   53 53  100/ 12/ 15 1027.0S
GOOSES REEF MD   1100   54     120/ 14/ 16 1026.0
COVE POINT MD    1048   54     130/ 16/ 22 1026.0R
SOLOMONS ISLAND  1048   54 53   90/ 13/ 16 1025.0S
BISHOPS HEAD MD  1048   54 55   80/ 12/ 16 1025.9R
PINEY POINT MD   1042          120/ 16/ 18   N/A
POTOMAC MD       1100   55 53  100/ 12/ 14 1026.2    2/ 3
CAMBRIDGE MD     1048   52 54              1027.0R
LEWISETTA VA     1048   54 56  120/ 11/ 13 1024.8R
RAPPAHANNOCK LGT 1042          100/ 20/ 25 1024.6F
STINGRAY PT      1100   56 55  130/ 16/ 19 1025.1    3/ 3
YORK RVR RNG VA  1048   57     120/ 22/ 25 1023.5F
YORKTOWN VA      1048   58 56  120/ 15/ 18 1022.8F
DOMINION TERM VA 1048   60     100/  8/ 15 1022.9F
KIPTOPEKE VA     1048      55  120/ 15/ 21   N/A
CAPE HENRY VA    1048   55     100/ 19/ 23   N/A
WILLOUBY STN VA  1048   57     100/ 13/ 16 1022.7F
S CRANEY ISL VA  1048   59     110/ 11/ 14 1022.4F
CAPE HENRY BUOY  1100      51                N/A     5/ 7
1ST LANDING BUOY 1100   55 53  120/ 17/ 21 1022.8    3/ 3
64NM E OF VA BCH 1050   56 50  110/ 16/ 17 1024.4F   7/ 7   3/14
DUCK PIER NC     1048   56 54  100/ 19/ 21 1021.8S
44100 DUCK FRF   1045      51                N/A     6/ 7
44056 DUCK FRF   1100      53                N/A     5/ 8
OREGON INLET NC  1042   56 57   90/  9/ 15 1021.7S
HATTERAS NC      1048      62  130/ 16/ 23 1020.1F
DIAMOND SHLS NC  1100   68 72  120/ 29/ 37 1020.7
CAPE LOOKOUT NC  1100          110/ 25/ 28 1018.7F
$$




USA.gov is the U.S. government's official web portal to all federal, state and local government web resources and services.